Location: Lafig�re
(44.4503°N, 4.0357°E)
Time: 16:38:18
(UTC+00:00)

Sich 1 Rocket - Pass Details

Date: 24 September 2020
Orbit: 616 x 652 km, 82.5° (Epoch: 25 October)

Event Time Altitude Azimuth Distance (km) Brightness Sun altitude
Rises 18:16:21 0° 188° (S) 2,925 7.0 -7.9°
Reaches altitude 10° 18:18:34 10° 188° (S) 2,026 6.2 -8.2°
Maximum altitude 18:23:05 86° 279° (W) 653 3.7 -9.0°
Drops below altitude 10° 18:27:40 10° 8° (N) 2,062 6.3 -9.9°
Sets 18:29:57 0° 9° (N) 2,980 7.1 -10.3°
